Location: Aufkirchen
(47.9603°N, 11.3653°E)
Time: 05:59:02
(UTC+02:00)

Tiros 1 despin weight - Visible Passes

Search period start: 19 May 2021 00:00
Search period end: 29 May 2021 00:00
Orbit: 593 x 642 km, 48.2° (Epoch: 18 May)

Date Brightness Start Highest point End Pass type
(mag) Time Alt. Az. Time Alt. Az. Time Alt. Az.
19 May ? 00:07:26 10° W 00:12:02 55° SSW 00:12:19 54° S visible
19 May ? 22:42:10 10° W 22:46:52 84° SSW 22:50:29 17° ESE visible
20 May ? 00:23:52 10° W 00:27:29 35° SW 00:27:29 35° SW visible
20 May ? 22:58:30 10° W 23:03:09 67° SSW 23:05:40 27° ESE visible
21 May ? 00:40:29 10° W 00:42:41 20° WSW 00:42:41 20° WSW visible
21 May ? 21:33:15 10° W 21:37:56 90° N 21:42:38 10° E visible
21 May ? 23:14:52 10° W 23:19:22 48° SSW 23:20:54 34° SSE visible
22 May ? 00:57:41 10° WSW 00:57:55 11° WSW 00:57:55 11° WSW visible
22 May ? 21:49:35 10° W 21:54:15 78° SSW 21:58:57 10° ESE visible
22 May ? 23:31:21 10° W 23:35:29 31° SSW 23:36:10 30° SSW visible
23 May ? 22:05:55 10° W 22:10:31 59° SSW 22:14:26 14° SE visible
23 May ? 23:48:07 10° W 23:51:27 20° SW 23:51:27 20° SW visible
24 May ? 22:22:18 10° W 22:26:41 40° SSW 22:29:46 18° SSE visible
25 May ? 00:06:02 10° WSW 00:06:47 11° SW 00:06:47 11° SW visible
25 May ? 22:38:53 10° W 22:42:45 26° SW 22:45:09 17° S visible
26 May ? 22:55:54 10° W 22:58:42 16° SW 23:00:34 13° SSW visible
28 May ? 21:46:28 10° W 21:50:00 21° SW 21:53:32 10° S visible
